• In Germany
  • List of Countries
  • For 7 days
  • Water Temperature
  • Satellite Maps
  • Weather Map
  • Weather Widgets
  • user-avatar
    Login

    Hourly Weather New Brighton

    Today, 18 November, Saturday

    Time Temperature Precipitation Wind Pressure Humidity
    00:00 0°C° 0 mm 3 mps 728 mmHg 91%
    01:00 0°C° 0 mm 3 mps 728 mmHg 90%
    02:00 -2°C° 0 mm 4 mps 728 mmHg 89%
    03:00 -2°C° 0 mm 4 mps 728 mmHg 88%
    04:00 -2°C° 0 mm 4 mps 729 mmHg 86%
    05:00 -3°C° 0 mm 4 mps 729 mmHg 84%
    06:00 -3°C° 0 mm 4 mps 730 mmHg 82%
    07:00 -3°C° 0 mm 4 mps 730 mmHg 78%
    08:00 -4°C° 0 mm 5 mps 731 mmHg 74%
    09:00 -4°C° 0 mm 5 mps 731 mmHg 71%
    10:00 -2°C° 0 mm 5 mps 731 mmHg 66%
    11:00 -1°C° 0 mm 5 mps 731 mmHg 60%
    12:00 0°C° 0 mm 5 mps 732 mmHg 55%
    13:00 -2°C° 0 mm 6 mps 732 mmHg 55%
    14:00 -2°C° 0 mm 6 mps 732 mmHg 54%
    15:00 -2°C° 0 mm 7 mps 733 mmHg 53%
    16:00 -3°C° 0 mm 6 mps 733 mmHg 56%
    17:00 -4°C° 0 mm 6 mps 734 mmHg 59%
    18:00 -6°C° 0 mm 6 mps 735 mmHg 62%
    19:00 -6°C° 0 mm 6 mps 735 mmHg 61%
    20:00 -8°C° 0 mm 6 mps 736 mmHg 60%
    21:00 -9°C° 0 mm 6 mps 736 mmHg 59%
    22:00 -9°C° 0 mm 6 mps 737 mmHg 57%
    23:00 -8°C° 0 mm 5 mps 737 mmHg 55%

    Tomorrow, 19 November, Sunday

    Time Temperature Precipitation Wind Pressure Humidity
    00:00 -8°C° 0 mm 5 mps 737 mmHg 54%
    01:00 -10°C° 0 mm 5 mps 737 mmHg 53%
    02:00 -9°C° 0 mm 4 mps 738 mmHg 52%
    03:00 -9°C° 0 mm 4 mps 738 mmHg 51%
    04:00 -9°C° 0 mm 4 mps 738 mmHg 50%
    05:00 -9°C° 0 mm 4 mps 738 mmHg 50%
    06:00 -8°C° 0 mm 3 mps 738 mmHg 49%
    07:00 -8°C° 0 mm 3 mps 738 mmHg 47%
    08:00 -7°C° 0 mm 3 mps 738 mmHg 45%
    09:00 -7°C° 0 mm 3 mps 738 mmHg 43%
    10:00 -5°C° 0 mm 3 mps 737 mmHg 40%
    11:00 -4°C° 0 mm 3 mps 736 mmHg 36%
    12:00 -1°C° 0 mm 3 mps 736 mmHg 33%
    13:00 -1°C° 0 mm 4 mps 735 mmHg 35%
    14:00 0°C° 0 mm 4 mps 734 mmHg 36%
    15:00 0°C° 0 mm 4 mps 733 mmHg 38%
    16:00 0°C° 0 mm 4 mps 733 mmHg 44%
    17:00 0°C° 0 mm 3 mps 733 mmHg 50%
    18:00 -1°C° 0 mm 3 mps 733 mmHg 57%
    19:00 -1°C° 0 mm 3 mps 733 mmHg 61%
    20:00 -1°C° 0 mm 2 mps 733 mmHg 65%
    21:00 -1°C° 0 mm 2 mps 733 mmHg 69%
    22:00 -1°C° 0 mm 2 mps 732 mmHg 70%
    23:00 -2°C° 0 mm 2 mps 732 mmHg 72%

    Day after tomorrow, 20 November, Monday

    Time Temperature Precipitation Wind Pressure Humidity
    00:00 0°C° 0 mm 1 mps 732 mmHg 74%
    01:00 0°C° 0 mm 1 mps 732 mmHg 74%
    02:00 0°C° 0 mm 1 mps 732 mmHg 74%
    03:00 0°C° 0 mm 1 mps 731 mmHg 75%
    04:00 0°C° 0 mm 1 mps 731 mmHg 75%
    05:00 0°C° 0 mm 1 mps 731 mmHg 76%
    06:00 -2°C° 0 mm 2 mps 731 mmHg 77%
    07:00 -1°C° 0 mm 2 mps 731 mmHg 73%
    08:00 -1°C° 0 mm 2 mps 731 mmHg 69%
    09:00 0°C° 0 mm 3 mps 731 mmHg 65%
    10:00 +2°C° 0 mm 3 mps 730 mmHg 60%
    11:00 +4°C° 0 mm 4 mps 729 mmHg 55%
    12:00 +6°C° 0 mm 4 mps 728 mmHg 49%
    13:00 +6°C° 0 mm 4 mps 727 mmHg 51%
    14:00 +6°C° 0 mm 4 mps 726 mmHg 52%
    15:00 +7°C° 0 mm 3 mps 726 mmHg 54%
    16:00 +5°C° 0 mm 4 mps 726 mmHg 58%
    17:00 +4°C° 0 mm 4 mps 726 mmHg 62%
    18:00 +3°C° 0 mm 4 mps 725 mmHg 67%
    19:00 +3°C° 0 mm 4 mps 725 mmHg 65%
    20:00 +3°C° 0 mm 4 mps 725 mmHg 64%
    21:00 +3°C° 0 mm 4 mps 725 mmHg 63%
    22:00 +3°C° 0 mm 4 mps 726 mmHg 62%
    23:00 +1°C° 0 mm 4 mps 726 mmHg 62%

    21 November, Tuesday

    Time Temperature Precipitation Wind Pressure Humidity
    00:00 +1°C° 0 mm 4 mps 727 mmHg 62%
    01:00 0°C° 0 mm 5 mps 727 mmHg 66%
    02:00 0°C° 0 mm 5 mps 728 mmHg 70%
    03:00 -2°C° 0 mm 6 mps 729 mmHg 75%
    04:00 -3°C° 0 mm 7 mps 730 mmHg 69%
    05:00 -6°C° 0 mm 7 mps 731 mmHg 63%
    06:00 -7°C° 0 mm 8 mps 732 mmHg 57%
    07:00 -7°C° 0 mm 8 mps 734 mmHg 53%
    08:00 -8°C° 0 mm 8 mps 735 mmHg 50%
    09:00 -8°C° 0 mm 8 mps 736 mmHg 47%
    10:00 -8°C° 0 mm 8 mps 737 mmHg 44%
    11:00 -8°C° 0 mm 8 mps 737 mmHg 40%
    12:00 -8°C° 0 mm 9 mps 738 mmHg 37%
    13:00 -7°C° 0 mm 8 mps 738 mmHg 37%
    14:00 -7°C° 0 mm 8 mps 738 mmHg 37%
    15:00 -8°C° 0 mm 8 mps 739 mmHg 37%
    16:00 -8°C° 0 mm 7 mps 740 mmHg 38%
    17:00 -8°C° 0 mm 7 mps 740 mmHg 40%
    18:00 -9°C° 0 mm 6 mps 741 mmHg 42%
    19:00 -9°C° 0 mm 6 mps 741 mmHg 43%
    20:00 -9°C° 0 mm 6 mps 742 mmHg 44%
    21:00 -9°C° 0 mm 6 mps 742 mmHg 46%
    22:00 -10°C° 0 mm 6 mps 742 mmHg 47%
    23:00 -10°C° 0 mm 5 mps 742 mmHg 48%

    22 November, Wednesday

    Time Temperature Precipitation Wind Pressure Humidity
    00:00 -10°C° 0 mm 5 mps 743 mmHg 49%
    01:00 -11°C° 0 mm 5 mps 743 mmHg 50%
    02:00 -11°C° 0 mm 5 mps 743 mmHg 51%
    03:00 -11°C° 0 mm 5 mps 744 mmHg 52%
    04:00 -11°C° 0 mm 5 mps 744 mmHg 53%
    05:00 -11°C° 0 mm 4 mps 744 mmHg 54%
    06:00 -11°C° 0 mm 4 mps 744 mmHg 55%
    07:00 -11°C° 0 mm 4 mps 744 mmHg 54%
    08:00 -10°C° 0 mm 4 mps 745 mmHg 53%
    09:00 -10°C° 0 mm 4 mps 745 mmHg 53%
    10:00 -8°C° 0 mm 3 mps 744 mmHg 49%
    11:00 -7°C° 0 mm 3 mps 744 mmHg 46%
    12:00 -7°C° 0 mm 3 mps 744 mmHg 42%
    13:00 -6°C° 0 mm 3 mps 744 mmHg 41%
    14:00 -6°C° 0 mm 3 mps 743 mmHg 39%
    15:00 -5°C° 0 mm 3 mps 743 mmHg 38%
    16:00 -5°C° 0 mm 2 mps 743 mmHg 40%
    17:00 -5°C° 0 mm 2 mps 743 mmHg 41%
    18:00 -6°C° 0 mm 2 mps 743 mmHg 42%
    19:00 -6°C° 0 mm 2 mps 743 mmHg 43%
    20:00 -4°C° 0 mm 1 mps 743 mmHg 44%
    21:00 -4°C° 0 mm 1 mps 743 mmHg 45%
    22:00 -6°C° 0 mm 1 mps 743 mmHg 46%
    23:00 -6°C° 0 mm 1 mps 743 mmHg 46%

    23 November, Thursday

    Time Temperature Precipitation Wind Pressure Humidity
    00:00 -6°C° 0 mm 1 mps 743 mmHg 47%
    01:00 -6°C° 0 mm 1 mps 743 mmHg 47%
    02:00 -6°C° 0 mm 1 mps 742 mmHg 48%
    03:00 -6°C° 0 mm 1 mps 742 mmHg 48%
    04:00 -7°C° 0 mm 1 mps 742 mmHg 48%
    05:00 -8°C° 0 mm 2 mps 742 mmHg 48%
    06:00 -8°C° 0 mm 2 mps 742 mmHg 47%
    07:00 -7°C° 0 mm 2 mps 742 mmHg 45%
    08:00 -7°C° 0 mm 2 mps 742 mmHg 42%
    09:00 -7°C° 0 mm 3 mps 741 mmHg 39%
    10:00 -6°C° 0 mm 3 mps 741 mmHg 36%
    11:00 -4°C° 0 mm 4 mps 740 mmHg 32%
    12:00 -3°C° 0 mm 4 mps 739 mmHg 28%
    13:00 -2°C° 0 mm 4 mps 739 mmHg 30%
    14:00 -2°C° 0 mm 4 mps 738 mmHg 31%
    15:00 -1°C° 0 mm 4 mps 738 mmHg 32%
    16:00 -1°C° 0 mm 3 mps 738 mmHg 36%
    17:00 -2°C° 0 mm 3 mps 738 mmHg 41%
    18:00 -3°C° 0 mm 2 mps 738 mmHg 45%
    19:00 -3°C° 0 mm 2 mps 737 mmHg 48%
    20:00 -1°C° 0 mm 1 mps 737 mmHg 51%
    21:00 -2°C° 0 mm 1 mps 737 mmHg 53%
    22:00 -2°C° 0 mm 1 mps 736 mmHg 55%
    23:00 -2°C° 0 mm 1 mps 736 mmHg 57%
    Show more